Location: Colebrook
(42.0017°N, 73.0973°W)
Time: 16:39:45
(UTC-05:00)

Vanguard 2 - Pass Details

Date: 27 October 2021
Orbit: 554 x 2936 km, 32.9° (Epoch: 04 December)

Event Time Altitude Azimuth Distance (km) Brightness Sun altitude
Exits shadow 06:43:22 - 262° (W) 3,741 10.4 -7.3°
Reaches altitude 10° 06:45:09 10° 255° (WSW) 3,208 10.1 -7.0°
Maximum altitude 06:49:51 18° 216° (SW) 2,208 9.7 -6.1°
Drops below altitude 10° 06:53:30 10° 174° (S) 2,368 10.3 -5.5°
Sets 06:56:20 0° 154° (SSE) 3,054 11.2 -5.0°
